[[{"header":{"parameterUnit":"m.s-1","parameterCategory":1,"la1":30.2991,"la2":30.254,"lo1":-89.0895,"lo2":-89.0444,"dy":0.0017,"dx":0.0017,"nx":28,"ny":28,"refTime":"2024-09-02T09:00:00:Z","depth":0,"parameterNumber":2,"parameterNumberName":"U-component_of_WINDS"},"data":[0,0,0,0,0,0,0,0,0,0,0,0,0,0,0,0,0,0,0,0,0,0,0,0,0,0,0,0,0,0,0,0,0,0,0,0,0,0,0,0,0,0,0,0,0,0,0,0,0,0,0,0,0,0,0,0,0,0,0.7871,0.7872,0,0.7951,0.7952,0.7953,0.7978,0.7978,0.7978,0.7977,0.8059,0.8062,0.8064,0,0,0,0,0,0,0,0,0,0,0,0,0,0.7739,0.7741,0.7871,0.7872,0.7873,0.7951,0.7952,0.7953,0.7979,0.7978,0.7978,0.7977,0.8058,0.8061,0.8064,0,0,0,0,0,0,0,0,0,0,0,0,0,0.7805,0.7742,0.7871,0.7895,0.7898,0.795,0.7952,0.7953,0.7979,0.7978,0.7978,0.7977,0.8057,0.8061,0.8065,0.8099,0,0,0.8076,0.8078,0,0,0,0,0,0,0,0,0.7802,0.781,0.7891,0.7894,0.7897,0.7954,0.7935,0.8002,0.7979,0.7948,0.7977,0.7977,0.8025,0.8031,0.8047,0.8103,0.8106,0.8077,0.8079,0.8081,0.8082,0,0,0,0,0,0,0,0.7797,0.7807,0.7903,0.7892,0.7896,0.7902,0.791,0.7948,0.7988,0.7951,0.7953,0.7962,0.8026,0.8044,0.8049,0.8107,0.8077,0.808,0.8082,0.8084,0.8193,0.8193,0,0,0,0,0,0,0.7788,0.7803,0.79,0.7905,0.7847,0.7904,0.7914,0.7936,0.7988,0.7995,0.7962,0.7963,0.8037,0.8045,0.8052,0.8094,0.8081,0.8084,0.8086,0.8192,0.8193,0.8194,0,0,0,0,0,0,0.7785,0.7797,0.7897,0.7855,0.7868,0.7907,0.7932,0.7938,0.7955,0.7997,0.8004,0.7972,0.8037,0.8047,0.8087,0.8098,0.8086,0.8089,0.8191,0.8192,0.8193,0.8179,0,0,0,0,0,0,0.7782,0.7796,0.7809,0.7855,0.787,0.793,0.7933,0.794,0.7962,0.7963,0.8008,0.8015,0.8038,0.8081,0.809,0.8103,0.8092,0.8191,0.8192,0.8193,0.8179,0.818,0.818,0,0,0,0,0,0.7777,0.7803,0.781,0.7822,0.7888,0.7931,0.7939,0.7965,0.7963,0.7976,0.8003,0.8014,0.8095,0.8085,0.8096,0.8109,0.819,0.8191,0.8193,0.8179,0.818,0.818,0,0,0,0,0,0,0.7758,0.7809,0.7818,0.7859,0.789,0.7935,0.7953,0.7965,0.7997,0.7997,0.8027,0.8037,0.8074,0.8096,0.8083,0.8144,0.8143,0.8147,0.8128,0.813,0.813,0.8124,0.8095,0,0,0,0,0,0.7759,0.779,0.7832,0.7865,0.788,0.7914,0.7933,0.795,0.7983,0.7997,0.8026,0.8058,0.809,0.8111,0.8144,0.8182,0.8192,0.8197,0.8197,0.8198,0.8201,0.8221,0.8224,0.8198,0.8198,0.8198,0,0,0.7761,0.7792,0.781,0.7862,0.7888,0.7918,0.7925,0.7957,0.798,0.8002,0.8041,0.8063,0.81,0.8139,0.8158,0.8158,0.821,0.82,0.82,0.8202,0.8223,0.8225,0.8227,0.8199,0.8199,0.8199,0,0,0.7779,0.7807,0.7836,0.7862,0.7901,0.7923,0.793,0.7972,0.7988,0.8027,0.8044,0.8071,0.8127,0.8152,0.8173,0.8199,0.821,0.8209,0.8212,0.8232,0.8234,0.8236,0.8244,0.8247,0.8211,0.8211,0.8211,0,0.7777,0.7824,0.785,0.7881,0.7902,0.7923,0.7952,0.7976,0.8024,0.8038,0.8038,0.8107,0.8134,0.8178,0.8184,0.82,0.8209,0.8204,0.8232,0.8234,0.8236,0.8244,0.8247,0.8211,0.8211,0.8211,0.8211,0,0.7818,0.785,0.7869,0.7914,0.7937,0.7968,0.7997,0.8018,0.8032,0.8054,0.8093,0.8126,0.8164,0.8176,0.819,0.8222,0.8221,0.8226,0.8225,0.8237,0.8246,0.8249,0.821,0.821,0.821,0.8211,0,0,0.7828,0.7886,0.7892,0.7912,0.7956,0.7981,0.8011,0.8049,0.8066,0.8097,0.8123,0.8169,0.8173,0.8196,0.8213,0.8231,0.8248,0.8233,0.8235,0.8234,0.8283,0.8279,0.8282,0.8255,0.8256,0.8257,0.828,0,0.7851,0.7907,0.793,0.7975,0.8004,0.8023,0.8049,0.8078,0.8099,0.8127,0.815,0.8181,0.8185,0.8199,0.8217,0.8242,0.8258,0.8241,0.8279,0.828,0.8269,0.8287,0.8283,0.8303,0.8283,0.8284,0.8284,0,0.7887,0.7918,0.7965,0.8004,0.8017,0.8041,0.8076,0.8102,0.8135,0.8149,0.8174,0.819,0.8221,0.8218,0.8262,0.8249,0.8266,0.8281,0.8282,0.8287,0.8283,0.8291,0.8311,0.8314,0.829,0.829,0.8289,0,0.7888,0.7942,0.7977,0.7993,0.804,0.8056,0.8076,0.8108,0.8129,0.816,0.8173,0.8207,0.8226,0.8251,0.8276,0.8271,0.8316,0.8316,0.8328,0.8328,0.8337,0.8336,0.8359,0.8348,0.8348,0.8348,0.8348,0,0.7912,0.794,0.7978,0.7999,0.803,0.8057,0.8087,0.8108,0.8137,0.8162,0.8181,0.8204,0.8235,0.8262,0.8281,0.8313,0.8322,0.8333,0.8338,0.8332,0.833,0.8343,0.8342,0.8349,0.8349,0.8349,0.8349,0,0.7919,0.7946,0.7985,0.8025,0.8036,0.8057,0.8091,0.8112,0.8133,0.8165,0.8174,0.8207,0.824,0.8266,0.8309,0.8322,0.8356,0.8361,0.8344,0.8347,0.8357,0.8356,0.8389,0.8394,0.838,0.8381,0.8381,0,0.7932,0.7954,0.7996,0.8014,0.8034,0.8063,0.8084,0.811,0.8131,0.8169,0.8185,0.8219,0.8247,0.8298,0.8326,0.8358,0.8365,0.8374,0.837,0.8362,0.8364,0.8362,0.8364,0.8374,0.8375,0.8375,0.8375,0,0.7952,0.7964,0.7993,0.8027,0.8051,0.8078,0.8106,0.812,0.8151,0.8173,0.8207,0.8228,0.8271,0.8304,0.834,0.836,0.8372,0.8376,0.838,0.8373,0.8362,0.8368,0.8345,0.8375,0.8375,0.8375,0.8375,0.8375,0.7962,0.7982,0.8015,0.8046,0.807,0.8095,0.8116,0.814,0.8168,0.8205,0.8219,0.8252,0.8284,0.8332,0.8352,0.8378,0.838,0.8387,0.8388,0.8389,0.8388,0.8358,0.8385,0.8385,0.8385,0.8385,0.8385,0,0.7983,0.8005,0.8033,0.8071,0.8096,0.8105,0.8136,0.8156,0.8185,0.8213,0.824,0.8278,0.831,0.8339,0.8372,0.8387,0.8394,0.8395,0.8394,0.8398,0.8385,0.8378,0.8389,0.8389,0.8389,0.8389,0.8389,0.8389,0.7996,0.803,0.8045,0.809,0.8111,0.8144,0.8161,0.8184,0.8207,0.8248,0.8274,0.8293,0.8321,0.8356,0.8385,0.8393,0.8404,0.8404,0.8413,0.84,0.8399,0.8399,0.8392,0.8406,0.8406,0.8424,0.8424,0.8424]},{"header":{"parameterUnit":"m.s-1","parameterCategory":1,"la1":30.2991,"la2":30.254,"lo1":-89.0895,"lo2":-89.0444,"dy":0.0017,"dx":0.0017,"nx":28,"ny":28,"refTime":"2024-09-02T09:00:00:Z","depth":0,"parameterNumber":3,"parameterNumberName":"V-component_of_WINDS"},"data":[0,0,0,0,0,0,0,0,0,0,0,0,0,0,0,0,0,0,0,0,0,0,0,0,0,0,0,0,0,0,0,0,0,0,0,0,0,0,0,0,0,0,0,0,0,0,0,0,0,0,0,0,0,0,0,0,0,0,2.3638,2.3638,0,2.3599,2.3598,2.3598,2.3576,2.3576,2.3576,2.3576,2.3531,2.353,2.3529,0,0,0,0,0,0,0,0,0,0,0,0,0,2.369,2.369,2.3638,2.3638,2.3637,2.3599,2.3598,2.3598,2.3576,2.3576,2.3576,2.3576,2.3532,2.3531,2.3529,0,0,0,0,0,0,0,0,0,0,0,0,0,2.3661,2.3689,2.3638,2.3622,2.362,2.3599,2.3598,2.3598,2.3576,2.3576,2.3576,2.3576,2.3532,2.3531,2.3529,2.352,0,0,2.3524,2.3523,0,0,0,0,0,0,0,0,2.3663,2.3659,2.3625,2.3623,2.3621,2.3592,2.36,2.3571,2.3576,2.3593,2.3576,2.3576,2.3551,2.3548,2.3541,2.3518,2.3516,2.3524,2.3523,2.3522,2.3521,0,0,0,0,0,0,0,2.3665,2.3661,2.3622,2.3624,2.3622,2.3615,2.3611,2.3595,2.3573,2.3591,2.3589,2.3585,2.355,2.3543,2.354,2.3515,2.3524,2.3522,2.3521,2.352,2.3482,2.3482,0,0,0,0,0,0,2.367,2.3662,2.3624,2.3621,2.3642,2.3614,2.3609,2.3601,2.3573,2.3569,2.3585,2.3584,2.3546,2.3542,2.3538,2.3525,2.3522,2.352,2.3519,2.3482,2.3482,2.3482,0,0,0,0,0,0,2.3671,2.3667,2.3625,2.3641,2.3636,2.3613,2.3605,2.3601,2.3593,2.3569,2.3564,2.3582,2.3545,2.354,2.3525,2.3523,2.352,2.3518,2.3482,2.3482,2.3482,2.35,0,0,0,0,0,0,2.3673,2.3667,2.3665,2.3642,2.3635,2.3614,2.3605,2.36,2.3591,2.3589,2.3564,2.356,2.3545,2.3527,2.3523,2.3521,2.3517,2.3482,2.3482,2.3482,2.3499,2.35,2.3501,0,0,0,0,0,2.3675,2.3671,2.3665,2.366,2.3631,2.3614,2.361,2.3594,2.3591,2.3587,2.3571,2.3561,2.3524,2.3526,2.3521,2.3518,2.3482,2.3482,2.3482,2.3499,2.35,2.3501,0,0,0,0,0,0,2.3693,2.3667,2.366,2.3649,2.3634,2.361,2.3606,2.3596,2.3581,2.358,2.3559,2.3554,2.354,2.3527,2.353,2.3507,2.3502,2.3501,2.3516,2.3517,2.3518,2.3522,2.3515,0,0,0,0,0,2.3696,2.3685,2.3663,2.3655,2.3648,2.3628,2.362,2.3609,2.3592,2.3585,2.3568,2.3551,2.3535,2.3526,2.351,2.3497,2.3491,2.3492,2.3494,2.3495,2.3494,2.3485,2.3485,2.3482,2.3482,2.3482,0,0,2.3702,2.3686,2.3681,2.3658,2.3645,2.3633,2.3623,2.3611,2.3601,2.3583,2.3567,2.3554,2.3533,2.3519,2.3511,2.3508,2.3493,2.3495,2.3496,2.3494,2.3485,2.3485,2.3486,2.3482,2.3482,2.3482,0,0,2.3706,2.3693,2.3685,2.3673,2.3654,2.364,2.3638,2.3616,2.3607,2.3591,2.3577,2.3564,2.3538,2.3524,2.3513,2.3511,2.3501,2.3507,2.3512,2.3504,2.3504,2.3504,2.3503,2.3503,2.3506,2.3506,2.3506,0,2.3715,2.3698,2.3682,2.3671,2.3661,2.3645,2.3635,2.3623,2.36,2.3592,2.3589,2.3556,2.3541,2.3522,2.3522,2.3514,2.351,2.351,2.3506,2.3506,2.3506,2.3504,2.3504,2.3507,2.3507,2.3507,2.3507,0,2.371,2.3698,2.3693,2.3672,2.3661,2.3651,2.3633,2.3623,2.3613,2.36,2.3583,2.3564,2.3544,2.3539,2.3528,2.3519,2.3517,2.351,2.3504,2.3507,2.3505,2.3505,2.3508,2.3508,2.3508,2.3507,0,0,2.3725,2.3695,2.3693,2.3683,2.3661,2.365,2.3639,2.3621,2.3613,2.3596,2.3585,2.3564,2.3557,2.3545,2.3532,2.3525,2.3523,2.3518,2.3517,2.352,2.3511,2.3516,2.3516,2.3516,2.3516,2.3516,2.3512,0,2.3725,2.3706,2.3691,2.3676,2.3664,2.3648,2.3637,2.3622,2.3609,2.3595,2.358,2.3565,2.3558,2.355,2.3542,2.3525,2.3521,2.3525,2.3504,2.3504,2.351,2.3515,2.3521,2.3518,2.3511,2.3511,2.3511,0,2.3724,2.371,2.3694,2.3672,2.3667,2.3658,2.364,2.3628,2.3609,2.3599,2.3586,2.3573,2.3558,2.3553,2.3532,2.3535,2.3525,2.3516,2.3515,2.3513,2.3508,2.3512,2.3517,2.3517,2.351,2.351,2.351,0,2.3736,2.3713,2.37,2.3692,2.3666,2.366,2.3649,2.363,2.362,2.3603,2.3596,2.3577,2.3567,2.3552,2.3534,2.3532,2.3514,2.3508,2.3505,2.3506,2.3502,2.3503,2.3506,2.3496,2.3496,2.3496,2.3496,0,2.3739,2.373,2.3706,2.3698,2.3687,2.3669,2.3658,2.3645,2.3628,2.3616,2.36,2.359,2.3566,2.3552,2.3537,2.3521,2.3517,2.3508,2.3504,2.3509,2.351,2.3503,2.3502,2.3496,2.3496,2.3496,2.3496,0,2.3751,2.3735,2.372,2.3697,2.3691,2.3683,2.3663,2.3654,2.364,2.3625,2.362,2.3598,2.358,2.356,2.3536,2.3526,2.3511,2.3505,2.3518,2.3516,2.3514,2.3514,2.3512,2.351,2.3502,2.3502,2.3502,0,2.3754,2.3747,2.3723,2.3715,2.3704,2.3691,2.3681,2.3662,2.3651,2.3629,2.3622,2.3604,2.3588,2.356,2.354,2.3521,2.3515,2.3515,2.3512,2.3517,2.3514,2.3515,2.3514,2.3517,2.3517,2.3517,2.3517,0,2.3761,2.3753,2.3739,2.3723,2.3711,2.3697,2.3681,2.3675,2.3653,2.3642,2.3624,2.3612,2.3587,2.3568,2.3547,2.3533,2.3521,2.3518,2.3517,2.3522,2.3529,2.3525,2.3521,2.3518,2.3518,2.3518,2.3518,2.3518,2.3768,2.3761,2.3743,2.3728,2.3715,2.3701,2.3691,2.3676,2.3662,2.3641,2.363,2.3613,2.3592,2.3562,2.3549,2.3534,2.353,2.3527,2.3527,2.3526,2.3528,2.3532,2.3529,2.3529,2.3529,2.3529,2.3529,0,2.3774,2.3761,2.3748,2.3728,2.3716,2.3707,2.3689,2.3679,2.3664,2.3647,2.3632,2.3611,2.3593,2.3571,2.3551,2.3543,2.3537,2.3538,2.3539,2.3535,2.3532,2.3536,2.3544,2.3544,2.3544,2.3544,2.3544,2.3544,2.3775,2.3762,2.3752,2.3732,2.3719,2.3703,2.3694,2.368,2.3666,2.3644,2.3629,2.3616,2.3597,2.3575,2.3557,2.3551,2.3544,2.3547,2.3539,2.3537,2.3536,2.3535,2.3538,2.3546,2.3546,2.3544,2.3544,2.3544]}]]